Satellite: RS-38
Catalog number: 35869
Epoch time: 10217.78276443
Element set: 546
Inclination: 098.7534 deg
RA of node: 271.2541 deg
Eccentricity: 0.0003902
Arg of perigee: 214.2368 deg
Mean anomaly: 145.8521 deg
Mean motion: 14.21986210 rev/day
Decay rate: 1.77e-06 rev/day^2
Epoch rev: 4577
Checksum: 315
/EX
More information about the Keps
mailing list